Radiation Dose at Monitoring Post of Fukushima Daini Nuclear Power Station
Date,Time,MP-1(microSv/h),MP-2(microSv/h),MP-3(microSv/h),MP-4(microSv/h),MP-5(microSv/h),MP-6(microSv/h),MP-7(microSv/h),Wind Direction,Wind Velocity(m/s),Rain
2015/07/25,00:00,0.497,0.288,0.520,0.477,0.462,0.233,0.204,southwest,5.0,No
2015/07/25,00:10,0.492,0.291,0.520,0.471,0.465,0.233,0.203,south-southwest,4.1,No
2015/07/25,00:20,0.496,0.290,0.516,0.472,0.460,0.234,0.202,west-southwest,5.1,No
2015/07/25,00:30,0.500,0.289,0.516,0.480,0.458,0.234,0.205,west-southwest,6.4,No
2015/07/25,00:40,0.494,0.292,0.522,0.475,0.465,0.233,0.202,west-southwest,6.1,No
2015/07/25,00:50,0.492,0.290,0.520,0.471,0.463,0.234,0.202,west-southwest,6.8,No
2015/07/25,01:00,0.498,0.287,0.514,0.476,0.457,0.233,0.204,west-southwest,7.8,No
2015/07/25,01:10,0.495,0.290,0.518,0.477,0.461,0.232,0.203,west-southwest,7.1,No
2015/07/25,01:20,0.492,0.291,0.520,0.472,0.465,0.235,0.200,west-southwest,5.8,No
2015/07/25,01:30,0.497,0.288,0.517,0.474,0.461,0.234,0.203,west-southwest,5.9,No
2015/07/25,01:40,0.497,0.289,0.514,0.479,0.459,0.232,0.204,west-southwest,5.7,No
2015/07/25,01:50,0.492,0.292,0.521,0.474,0.459,0.233,0.201,west-southwest,5.5,No
2015/07/25,02:00,0.494,0.290,0.520,0.470,0.464,0.235,0.201,southwest,5.1,No
2015/07/25,02:10,0.499,0.289,0.515,0.477,0.461,0.234,0.205,southwest,5.0,No
2015/07/25,02:20,0.494,0.292,0.514,0.477,0.459,0.231,0.203,southwest,4.9,No
2015/07/25,02:30,0.492,0.290,0.522,0.472,0.457,0.234,0.202,southwest,5.2,No
2015/07/25,02:40,0.499,0.289,0.519,0.473,0.464,0.235,0.204,southwest,4.7,No
2015/07/25,02:50,0.496,0.290,0.514,0.478,0.461,0.234,0.204,southwest,4.5,No
2015/07/25,03:00,0.490,0.291,0.517,0.475,0.459,0.231,0.203,southwest,3.9,No
2015/07/25,03:10,0.497,0.289,0.522,0.471,0.455,0.235,0.202,southwest,3.8,No
2015/07/25,03:20,0.499,0.290,0.517,0.472,0.462,0.233,0.204,south-southwest,3.3,No
2015/07/25,03:30,0.494,0.289,0.513,0.478,0.464,0.232,0.203,southwest,3.5,No
2015/07/25,03:40,0.493,0.290,0.518,0.474,0.460,0.234,0.202,southwest,3.6,No
2015/07/25,03:50,0.496,0.288,0.524,0.470,0.458,0.234,0.205,southwest,4.6,No
2015/07/25,04:00,0.494,0.292,0.519,0.476,0.462,0.234,0.203,southwest,3.9,No
2015/07/25,04:10,0.492,0.290,0.513,0.478,0.464,0.234,0.204,southwest,3.0,No
2015/07/25,04:20,0.499,0.288,0.519,0.474,0.462,0.235,0.204,southwest,3.6,No
2015/07/25,04:30,0.498,0.292,0.523,0.470,0.460,0.234,0.205,southwest,3.0,No
2015/07/25,04:40,0.495,0.291,0.518,0.476,0.461,0.233,0.205,southwest,1.4,No
2015/07/25,04:50,0.495,0.288,0.515,0.478,0.469,0.234,0.205,west-southwest,2.4,No
2015/07/25,05:00,0.500,0.292,0.521,0.474,0.462,0.235,0.205,west-southwest,1.7,No
2015/07/25,05:10,0.496,0.292,0.521,0.471,0.459,0.234,0.203,southwest,2.6,No
2015/07/25,05:20,0.492,0.290,0.515,0.479,0.466,0.235,0.204,southwest,2.8,No
2015/07/25,05:30,0.500,0.291,0.519,0.477,0.467,0.234,0.205,southwest,2.2,No
2015/07/25,05:40,0.494,0.291,0.523,0.471,0.461,0.233,0.203,southwest,3.6,No
2015/07/25,05:50,0.494,0.289,0.518,0.474,0.457,0.235,0.204,south-southwest,4.2,No
2015/07/25,06:00,0.498,0.290,0.515,0.480,0.463,0.235,0.205,south-southwest,4.2,No
2015/07/25,06:10,0.495,0.292,0.522,0.476,0.465,0.232,0.204,south-southwest,3.6,No
2015/07/25,06:20,0.490,0.290,0.518,0.471,0.462,0.233,0.202,south-southwest,3.1,No
2015/07/25,06:30,0.494,0.288,0.516,0.472,0.459,0.234,0.204,southwest,2.5,Yes
2015/07/25,06:40,0.499,0.290,0.516,0.479,0.459,0.234,0.204,southwest,2.6,Yes
2015/07/25,06:50,0.495,0.292,0.523,0.475,0.461,0.234,0.202,south-southwest,3.7,Yes
2015/07/25,07:00,0.491,0.289,0.519,0.472,0.463,0.234,0.205,south-southwest,5.5,Yes
2015/07/25,07:10,0.498,0.290,0.513,0.469,0.462,0.233,0.203,south-southwest,5.8,No
2015/07/25,07:20,0.498,0.292,0.516,0.477,0.461,0.233,0.204,south-southwest,6.0,No
2015/07/25,07:30,0.492,0.290,0.522,0.481,0.457,0.235,0.205,south-southwest,4.6,No
2015/07/25,07:40,0.497,0.289,0.518,0.475,0.458,0.235,0.204,south-southwest,4.6,No
2015/07/25,07:50,0.498,0.288,0.514,0.473,0.458,0.233,0.202,south-southwest,5.2,No
2015/07/25,08:00,0.495,0.293,0.514,0.468,0.461,0.233,0.202,south-southwest,4.3,No
2015/07/25,08:10,0.491,0.291,0.520,0.472,0.464,0.235,0.205,southwest,4.2,No
2015/07/25,08:20,0.494,0.289,0.522,0.476,0.465,0.234,0.206,southwest,3.9,Yes
2015/07/25,08:30,0.498,0.287,0.517,0.475,0.462,0.234,0.204,southwest,2.3,Yes
2015/07/25,08:40,0.494,0.289,0.514,0.473,0.461,0.234,0.203,west-southwest,1.7,No
2015/07/25,08:50,0.493,0.292,0.513,0.471,0.461,0.234,0.202,west-southwest,1.3,No
2015/07/25,09:00,0.495,0.291,0.521,0.471,0.460,0.235,0.203,west-southwest,0.7,No
2015/07/25,09:10,0.499,0.290,0.520,0.470,0.457,0.236,0.204,west,1.4,No
2015/07/25,09:20,0.497,0.289,0.517,0.475,0.461,0.235,0.205,west-southwest,1.9,No
2015/07/25,09:30,0.496,0.289,0.518,0.478,0.460,0.235,0.203,west,1.5,No
2015/07/25,09:40,0.492,0.287,0.515,0.476,0.461,0.234,0.203,northwest,1.6,No
2015/07/25,09:50,0.492,0.289,0.515,0.477,0.460,0.234,0.202,west-northwest,1.0,Yes
2015/07/25,10:00,0.499,0.293,0.519,0.474,0.460,0.234,0.205,northwest,0.7,Yes
2015/07/25,10:10,0.498,0.293,0.522,0.472,0.458,0.236,0.205,-,CALM,Yes
2015/07/25,10:20,0.495,0.292,0.520,0.471,0.467,0.236,0.204,east,1.3,Yes
2015/07/25,10:30,0.492,0.290,0.518,0.471,0.466,0.234,0.203,east-southeast,0.7,No
2015/07/25,10:40,0.491,0.290,0.515,0.479,0.465,0.234,0.203,east,0.5,Yes
2015/07/25,10:50,0.498,0.289,0.515,0.476,0.463,0.234,0.204,east-southeast,0.7,Yes
2015/07/25,11:00,0.498,0.288,0.518,0.475,0.461,0.235,0.204,south-southeast,1.2,No
2015/07/25,11:10,0.498,0.289,0.522,0.472,0.462,0.235,0.204,south,2.4,Yes
2015/07/25,11:20,0.493,0.294,0.520,0.473,0.460,0.235,0.205,south,3.3,Yes
2015/07/25,11:30,0.493,0.293,0.518,0.473,0.460,0.235,0.203,south,3.7,No
2015/07/25,11:40,0.494,0.290,0.517,0.471,0.463,0.234,0.203,south-southwest,2.2,No
2015/07/25,11:50,0.501,0.290,0.516,0.473,0.462,0.235,0.203,south-southwest,1.6,Yes
2015/07/25,12:00,0.499,0.290,0.515,0.475,0.461,0.234,0.204,south-southwest,2.8,Yes
2015/07/25,12:10,0.496,0.289,0.514,0.474,0.462,0.235,0.206,south-southwest,2.3,Yes
2015/07/25,12:20,0.494,0.290,0.519,0.478,0.461,0.236,0.205,south-southwest,2.1,Yes
2015/07/25,12:30,0.497,0.294,0.522,0.480,0.460,0.236,0.203,south-southwest,3.0,Yes
2015/07/25,12:40,0.499,0.293,0.522,0.479,0.462,0.235,0.205,south,2.8,Yes
2015/07/25,12:50,0.500,0.293,0.521,0.478,0.463,0.237,0.207,south,3.1,Yes
2015/07/25,13:00,0.497,0.293,0.518,0.478,0.464,0.237,0.207,south-southwest,3.1,Yes
2015/07/25,13:10,0.499,0.295,0.519,0.476,0.463,0.239,0.206,south-southwest,2.8,Yes
2015/07/25,13:20,0.503,0.296,0.523,0.472,0.465,0.237,0.206,south-southwest,1.5,Yes
2015/07/25,13:30,0.499,0.294,0.522,0.479,0.468,0.237,0.208,south-southwest,1.9,No
2015/07/25,13:40,0.494,0.290,0.519,0.480,0.466,0.236,0.207,southwest,1.9,No
2015/07/25,13:50,0.499,0.290,0.517,0.479,0.464,0.237,0.204,south-southwest,2.2,No
2015/07/25,14:00,0.499,0.294,0.520,0.473,0.460,0.236,0.205,southwest,1.1,No
2015/07/25,14:10,0.497,0.292,0.522,0.474,0.460,0.235,0.206,south-southwest,0.8,No
2015/07/25,14:20,0.493,0.291,0.520,0.481,0.463,0.236,0.205,south,1.0,No
2015/07/25,14:30,0.492,0.290,0.518,0.477,0.466,0.235,0.203,-,CALM,No
2015/07/25,14:40,0.499,0.288,0.515,0.475,0.466,0.235,0.204,south-southeast,0.7,No
2015/07/25,14:50,0.497,0.290,0.521,0.471,0.462,0.235,0.204,-,CALM,No
2015/07/25,15:00,0.496,0.291,0.519,0.470,0.460,0.235,0.203,north-northwest,0.9,No
2015/07/25,15:10,0.493,0.292,0.517,0.475,0.460,0.234,0.204,west-southwest,1.0,No
2015/07/25,15:20,0.492,0.290,0.517,0.479,0.462,0.235,0.204,west-southwest,1.7,No
2015/07/25,15:30,0.497,0.290,0.515,0.474,0.459,0.233,0.204,southwest,2.5,No
2015/07/25,15:40,0.497,0.288,0.513,0.474,0.459,0.234,0.204,west-southwest,2.8,No
2015/07/25,15:50,0.497,0.289,0.518,0.471,0.459,0.235,0.203,southwest,2.8,No
2015/07/25,16:00,0.493,0.289,0.522,0.470,0.458,0.235,0.202,south-southwest,3.1,No
2015/07/25,16:10,0.492,0.287,0.519,0.474,0.459,0.234,0.204,southwest,3.3,No
2015/07/25,16:20,0.494,0.287,0.518,0.478,0.461,0.236,0.204,south-southwest,3.3,No
2015/07/25,16:30,0.499,0.291,0.517,0.478,0.463,0.234,0.204,west-southwest,2.2,No
2015/07/25,16:40,0.497,0.292,0.515,0.474,0.467,0.235,0.202,west-southwest,2.1,No
2015/07/25,16:50,0.494,0.291,0.515,0.472,0.466,0.234,0.202,west,1.7,No
2015/07/25,17:00,0.491,0.289,0.522,0.471,0.464,0.236,0.204,southwest,1.3,No
2015/07/25,17:10,0.494,0.287,0.519,0.480,0.463,0.234,0.204,southwest,1.3,No
2015/07/25,17:20,0.499,0.289,0.516,0.476,0.459,0.234,0.202,west-southwest,2.7,No
2015/07/25,17:30,0.498,0.292,0.515,0.474,0.459,0.235,0.203,west,1.6,No
2015/07/25,17:40,0.492,0.291,0.515,0.471,0.465,0.233,0.204,west,1.5,No
2015/07/25,17:50,0.491,0.289,0.521,0.471,0.465,0.233,0.203,west,1.5,No
2015/07/25,18:00,0.496,0.288,0.521,0.479,0.465,0.234,0.201,west,0.7,No
2015/07/25,18:10,0.498,0.289,0.518,0.478,0.462,0.235,0.205,south-southwest,0.7,No
2015/07/25,18:20,0.495,0.291,0.517,0.473,0.458,0.235,0.205,west-southwest,0.7,No
2015/07/25,18:30,0.493,0.291,0.515,0.472,0.458,0.234,0.203,southwest,0.8,No
2015/07/25,18:40,0.497,0.288,0.522,0.478,0.465,0.234,0.203,-,CALM,No
2015/07/25,18:50,0.500,0.289,0.521,0.482,0.464,0.235,0.204,west-northwest,1.4,No
2015/07/25,19:00,0.495,0.293,0.517,0.477,0.462,0.233,0.204,northwest,2.1,No
2015/07/25,19:10,0.491,0.291,0.513,0.473,0.459,0.233,0.201,north-northwest,1.6,No
2015/07/25,19:20,0.501,0.288,0.521,0.472,0.462,0.235,0.204,northwest,1.4,No
2015/07/25,19:30,0.499,0.291,0.521,0.476,0.467,0.234,0.204,northwest,1.3,No
2015/07/25,19:40,0.496,0.293,0.519,0.475,0.465,0.234,0.203,west,1.6,No
2015/07/25,19:50,0.491,0.289,0.514,0.473,0.460,0.233,0.203,west-northwest,1.9,No
2015/07/25,20:00,0.499,0.288,0.521,0.475,0.460,0.234,0.204,west-northwest,3.1,No
2015/07/25,20:10,0.499,0.291,0.521,0.479,0.465,0.234,0.203,west-northwest,3.3,No
2015/07/25,20:20,0.494,0.290,0.518,0.475,0.465,0.234,0.203,west-northwest,4.5,No
2015/07/25,20:30,0.494,0.290,0.515,0.472,0.460,0.235,0.203,west-northwest,3.8,No
2015/07/25,20:40,0.500,0.287,0.521,0.477,0.459,0.235,0.204,northwest,3.8,No
2015/07/25,20:50,0.495,0.292,0.522,0.478,0.461,0.234,0.203,northwest,3.1,No
2015/07/25,21:00,0.492,0.291,0.517,0.474,0.466,0.234,0.205,northwest,2.5,No
2015/07/25,21:10,0.501,0.288,0.515,0.472,0.464,0.235,0.205,northwest,2.5,No
2015/07/25,21:20,0.499,0.292,0.523,0.480,0.459,0.234,0.202,northwest,3.0,No
2015/07/25,21:30,0.494,0.291,0.519,0.477,0.464,0.235,0.204,west-northwest,3.0,No
2015/07/25,21:40,0.496,0.288,0.516,0.471,0.466,0.233,0.203,northwest,3.3,No
2015/07/25,21:50,0.498,0.292,0.520,0.475,0.463,0.235,0.203,north-northwest,3.2,No
2015/07/25,22:00,0.495,0.292,0.521,0.479,0.456,0.234,0.204,northwest,3.9,No
2015/07/25,22:10,0.494,0.289,0.517,0.474,0.464,0.233,0.204,northwest,3.6,No
2015/07/25,22:20,0.500,0.291,0.518,0.473,0.466,0.234,0.203,west-northwest,3.7,No
2015/07/25,22:30,0.495,0.292,0.525,0.479,0.460,0.233,0.205,northwest,2.8,No
2015/07/25,22:40,0.492,0.290,0.518,0.475,0.458,0.234,0.204,west-northwest,3.7,No
2015/07/25,22:50,0.501,0.289,0.515,0.472,0.465,0.234,0.203,west-northwest,3.5,No
2015/07/25,23:00,0.499,0.291,0.522,0.477,0.462,0.234,0.205,northwest,3.1,No
2015/07/25,23:10,0.493,0.288,0.523,0.478,0.458,0.234,0.205,west-northwest,3.6,No
2015/07/25,23:20,0.498,0.290,0.518,0.472,0.463,0.234,0.204,west-northwest,2.3,No
2015/07/25,23:30,0.499,0.292,0.519,0.475,0.464,0.233,0.205,northwest,2.6,No
2015/07/25,23:40,0.493,0.290,0.521,0.479,0.461,0.234,0.203,northwest,2.6,No
2015/07/25,23:50,0.495,0.288,0.517,0.474,0.459,0.234,0.203,west-northwest,2.6,No
